Temp
-10 -9 -9 -9 -9 -9 -9 -9 -9 -8 -8 -8 -7 -7 -7 -6 -6 -6 -6 -6 -6 -6 -7 -7 -7 -7 -7 -7 -7 -8 -8 -8 -8 -8 -8 -8 -8 -8 -8 -8 -8 -8 -8
-9 -8 -9 -9 -9 -9 -9 -9 -8 -8 -8 -8 -7 -7 -7 -7 -7 -7 -7 -7 -7 -6 -6 -6 -6 -7 -7 -7 -7 -7 -8 -8 -8 -8 -8 -8 -8 -8 -8 -8 -8 -8 -8
-9 -9 -9 -9 -9 -9 -9 -9 -9 -8 -8 -8 -8 -7 -7 -7 -7 -7 -7 -7 -7 -7 -7 -7 -7 -7 -7 -7 -7 -7 -7 -7 -7 -8 -7 -7 -8 -8 -8 -8 -8 -8 -8
-9 -10 -9 -9 -9 -9 -9 -9 -9 -8 -8 -8 -8 -7 -7 -7 -7 -7 -7 -7 -7 -7 -7 -7 -7 -7 -7 -7 -7 -7 -7 -7 -7 -8 -8 -8 -8 -8 -8 -8 -8 -8 -8
-10 -9 -9 -9 -10 -10 -10 -10 -9 -9 -8 -8 -8 -7 -7 -7 -7 -7 -7 -7 -7 -7 -7 -7 -7 -7 -7 -7 -7 -7 -7 -8 -8 -8 -8 -8 -8 -8 -8 -8 -8 -8 -8
-10 -10 -9 -9 -9 -9 -10 -10 -9 -9 -9 -8 -8 -8 -7 -7 -7 -7 -7 -7 -7 -7 -7 -7 -7 -7 -7 -7 -7 -7 -8 -8 -8 -8 -8 -8 -8 -8 -9 -9 -9 -9 -9
-9 -9 -9 -9 -10 -9 -8 -9 -9 -10 -9 -9 -8 -8 -8 -8 -8 -7 -7 -7 -7 -7 -7 -7 -7 -7 -7 -7 -8 -8 -8 -8 -8 -8 -8 -8 -8 -8 -8 -8 -9 -8 -8
-10 -9 -9 -9 -9 -9 -9 -9 -9 -9 -9 -9 -9 -8 -8 -8 -8 -8 -8 -8 -8 -8 -8 -8 -7 -8 -8 -8 -8 -8 -8 -8 -8 -8 -8 -8 -9 -9 -9 -9 -9 -9 -9
-10 -9 -9 -9 -9 -9 -9 -9 -9 -9 -9 -9 -9 -9 -9 -9 -8 -8 -9 -9 -8 -8 -8 -8 -8 -8 -8 -9 -9 -8 -8 -8 -9 -9 -8 -9 -9 -9 -9 -9 -10 -10 -10
-9 -9 -10 -10 -9 -9 -9 -9 -9 -9 -10 -10 -10 -10 -9 -9 -9 -9 -9 -9 -9 -9 -9 -9 -9 -9 -9 -9 -9 -9 -9 -9 -9 -9 -9 -9 -10 -10 -10 -10 -11 -11 -11
-10 -10 -10 -10 -10 -10 -9 -9 -9 -9 -10 -10 -10 -10 -9 -8 -8 -9 -9 -9 -9 -9 -9 -9 -9 -9 -9 -9 -10 -10 -10 -10 -10 -10 -10 -10 -11 -11 -12 -12 -12 -12 -13
-9 -9 -10 -10 -10 -10 -10 -10 -9 -10 -10 -11 -10 -9 -9 -9 -9 -9 -10 -9 -9 -10 -10 -9 -10 -10 -10 -10 -11 -11 -11 -11 -11 -11 -11 -12 -12 -13 -13 -13 -13 -13 -13
-10 -10 -9 -9 -9 -9 -10 -10 -11 -11 -11 -10 -10 -9 -9 -10 -10 -10 -10 -10 -10 -10 -10 -10 -10 -11 -11 -11 -11 -11 -11 -11 -12 -12 -13 -13 -13 -13 -13 -13 -14 -14 -15
-10 -10 -10 -10 -10 -9 -9 -9 -9 -10 -10 -9 -10 -10 -9 -10 -10 -10 -10 -10 -11 -11 -11 -11 -11 -12 -12 -12 -12 -12 -12 -13 -13 -13 -14 -14 -14 -14 -14 -15 -15 -15 -15
-9 -9 -10 -10 -10 -10 -10 -10 -10 -10 -10 -10 -10 -10 -10 -10 -10 -10 -11 -11 -11 -11 -11 -12 -12 -12 -13 -13 -13 -13 -13 -14 -14 -14 -14 -14 -15 -15 -15 -15 -15 -15 -16
-9 -10 -10 -10 -10 -10 -10 -10 -10 -10 -10 -10 -10 -10 -10 -11 -11 -11 -12 -12 -12 -12 -12 -12 -13 -13 -14 -14 -14 -14 -14 -14 -14 -14 -15 -15 -15 -15 -16 -16 -16 -16 -17
-10 -10 -10 -10 -10 -10 -10 -10 -10 -10 -10 -10 -10 -11 -11 -11 -12 -12 -13 -13 -13 -13 -13 -14 -14 -14 -14 -15 -15 -15 -15 -15 -15 -15 -15 -16 -16 -16 -16 -16 -17 -17 -17
-10 -10 -10 -10 -10 -10 -10 -10 -10 -11 -11 -11 -11 -11 -11 -12 -12 -13 -13 -14 -14 -14 -14 -15 -15 -15 -15 -15 -15 -15 -16 -16 -16 -16 -16 -16 -16 -17 -17 -17 -17 -18 -18
-10 -10 -10 -10 -11 -10 -11 -11 -11 -11 -11 -11 -11 -12 -12 -12 -13 -13 -14 -15 -15 -15 -15 -15 -15 -15 -15 -15 -15 -16 -16 -16 -16 -17 -17 -17 -17 -17 -18 -18 -19 -19 -19
-10 -11 -11 -11 -11 -11 -11 -11 -11 -11 -11 -12 -12 -13 -13 -14 -14 -14 -15 -15 -15 -15 -15 -15 -15 -15 -15 -16 -16 -16 -17 -17 -17 -17 -17 -18 -18 -18 -19 -19 -20 -20 -20
-11 -11 -11 -11 -11 -11 -11 -11 -12 -12 -12 -13 -13 -13 -14 -14 -14 -15 -15 -15 -15 -15 -16 -16 -16 -16 -16 -17 -17 -17 -17 -17 -18 -18 -18 -18 -19 -19 -20 -20 -20 -21 -21
-12 -11 -12 -12 -11 -12 -12 -12 -13 -13 -13 -14 -14 -14 -15 -15 -15 -15 -15 -16 -16 -16 -16 -16 -16 -17 -17 -17 -17 -17 -18 -18 -18 -19 -19 -19 -20 -20 -20 -21 -21 -21 -21
-12 -12 -12 -12 -12 -13 -13 -13 -14 -14 -15 -15 -15 -15 -15 -16 -16 -16 -16 -16 -16 -16 -17 -17 -17 -17 -17 -18 -18 -18 -18 -19 -19 -19 -20 -20 -21 -20 -21 -21 -21 -21 -21
-13 -13 -13 -14 -14 -14 -14 -14 -15 -15 -15 -15 -15 -15 -16 -16 -16 -16 -16 -16 -17 -17 -17 -18 -17 -18 -18 -18 -18 -19 -19 -19 -20 -20 -21 -21 -21 -21 -21 -21 -21 -22 -22
-14 -15 -15 -15 -15 -15 -15 -15 -16 -16 -16 -16 -16 -16 -17 -16 -16 -16 -17 -17 -17 -18 -18 -18 -18 -18 -18 -19 -19 -19 -20 -20 -20 -21 -21 -21 -21 -21 -22 -22 -22 -22 -22
-15 -15 -15 -16 -16 -15 -16 -16 -16 -16 -16 -16 -16 -17 -17 -17 -17 -17 -17 -18 -18 -18 -18 -18 -18 -19 -19 -19 -20 -20 -20 -20 -20 -21 -21 -21 -21 -22 -22 -22 -22 -22 -22
Height
5852 5843 5848 5849 5856 5862 5865 5865 5865 5865 5865 5864 5863 5865 5864 5863 5863 5862 5862 5861 5860 5859 5858 5856 5853 5852 5852 5851 5850 5849 5849 5849 5849 5849 5849 5850 5852 5852 5852 5851 5849 5847 5846
5843 5843 5847 5851 5857 5861 5863 5865 5865 5864 5864 5863 5863 5862 5861 5861 5863 5862 5862 5862 5860 5860 5860 5857 5854 5853 5853 5852 5851 5849 5848 5847 5847 5847 5847 5847 5847 5847 5847 5846 5845 5844 5842
5844 5848 5849 5852 5856 5859 5861 5863 5863 5862 5860 5860 5861 5861 5859 5860 5861 5861 5861 5860 5859 5858 5858 5857 5855 5853 5852 5850 5849 5847 5846 5845 5844 5844 5844 5844 5843 5843 5842 5841 5840 5839 5838
5861 5857 5856 5855 5857 5859 5859 5860 5861 5860 5859 5858 5858 5858 5858 5858 5859 5858 5858 5858 5857 5856 5855 5854 5853 5851 5849 5848 5847 5845 5844 5843 5842 5841 5841 5841 5840 5839 5838 5836 5835 5833 5831
5861 5859 5856 5854 5855 5856 5857 5857 5858 5858 5858 5857 5856 5856 5856 5856 5855 5855 5855 5855 5854 5854 5852 5851 5850 5849 5847 5845 5843 5842 5841 5840 5839 5838 5837 5836 5835 5834 5832 5830 5827 5825 5823
5857 5856 5857 5856 5853 5852 5852 5853 5853 5854 5855 5854 5853 5853 5853 5853 5852 5852 5851 5851 5850 5849 5849 5847 5846 5845 5844 5842 5841 5839 5837 5836 5835 5834 5832 5830 5828 5826 5824 5822 5820 5817 5815
5853 5852 5850 5849 5849 5848 5847 5848 5850 5850 5850 5850 5850 5849 5849 5848 5847 5846 5847 5846 5846 5845 5845 5844 5842 5840 5839 5838 5837 5835 5834 5832 5830 5829 5827 5825 5822 5819 5816 5813 5810 5807 5805
5849 5845 5844 5842 5839 5840 5841 5841 5842 5844 5845 5846 5846 5845 5846 5845 5843 5842 5842 5842 5842 5841 5840 5839 5838 5836 5834 5833 5832 5830 5828 5827 5825 5822 5820 5817 5815 5812 5808 5805 5802 5799 5795
5844 5840 5839 5839 5836 5836 5836 5835 5833 5839 5841 5841 5842 5842 5842 5842 5841 5839 5839 5839 5838 5838 5837 5836 5834 5832 5830 5828 5827 5824 5822 5819 5817 5815 5813 5809 5806 5802 5799 5795 5792 5788 5785
5842 5840 5839 5837 5836 5837 5836 5835 5835 5836 5837 5837 5837 5837 5838 5837 5836 5835 5834 5834 5834 5833 5832 5831 5829 5827 5825 5823 5821 5818 5816 5813 5809 5806 5803 5799 5796 5792 5788 5784 5780 5777 5773
5841 5839 5837 5836 5835 5836 5835 5835 5835 5834 5833 5833 5833 5834 5834 5833 5831 5830 5830 5829 5829 5828 5826 5825 5823 5821 5819 5815 5812 5810 5807 5804 5800 5796 5792 5788 5785 5781 5777 5773 5769 5765 5761
5838 5837 5836 5835 5834 5833 5833 5831 5830 5829 5829 5829 5830 5829 5828 5827 5826 5825 5825 5824 5822 5821 5819 5817 5816 5814 5811 5808 5805 5801 5798 5793 5789 5785 5781 5777 5773 5769 5765 5762 5758 5754 5749
5835 5834 5833 5831 5831 5831 5829 5829 5826 5826 5827 5827 5826 5824 5823 5822 5820 5819 5818 5817 5815 5813 5811 5809 5807 5804 5801 5798 5794 5791 5787 5783 5779 5774 5771 5767 5763 5758 5754 5750 5746 5742 5738
5830 5829 5828 5828 5827 5826 5826 5824 5822 5821 5821 5822 5821 5820 5818 5817 5815 5812 5811 5808 5807 5804 5802 5800 5798 5794 5791 5787 5783 5779 5775 5770 5767 5763 5759 5756 5751 5747 5743 5740 5737 5733 5729
5825 5824 5824 5823 5821 5819 5818 5818 5817 5816 5815 5814 5814 5812 5811 5810 5808 5805 5803 5800 5797 5795 5793 5791 5788 5784 5781 5777 5773 5769 5765 5761 5757 5753 5749 5745 5742 5738 5735 5730 5727 5723 5718
5819 5818 5818 5816 5814 5812 5812 5811 5810 5809 5808 5807 5805 5803 5802 5800 5798 5796 5793 5791 5788 5785 5783 5780 5777 5774 5771 5766 5762 5758 5754 5750 5747 5743 5740 5736 5733 5729 5725 5720 5716 5712 5707
5810 5810 5809 5808 5806 5805 5804 5803 5802 5801 5801 5798 5796 5794 5792 5791 5788 5786 5784 5780 5777 5774 5771 5768 5765 5762 5759 5754 5750 5747 5743 5740 5737 5733 5730 5726 5722 5718 5713 5709 5704 5700 5696
5801 5801 5799 5798 5797 5796 5795 5794 5793 5792 5790 5788 5787 5784 5782 5780 5778 5775 5773 5769 5766 5763 5760 5757 5754 5750 5747 5744 5741 5737 5734 5730 5727 5724 5720 5715 5711 5707 5702 5697 5692 5688 5683
5792 5792 5792 5791 5790 5789 5787 5786 5784 5782 5781 5779 5777 5775 5773 5770 5767 5765 5762 5759 5756 5753 5750 5746 5743 5741 5738 5735 5731 5728 5724 5721 5717 5713 5709 5704 5699 5695 5690 5685 5680 5676 5671
5783 5783 5783 5782 5780 5779 5779 5778 5775 5773 5771 5769 5767 5765 5762 5760 5757 5754 5752 5750 5747 5743 5740 5737 5733 5731 5728 5725 5722 5718 5715 5711 5707 5702 5698 5693 5688 5683 5679 5674 5669 5665 5661
5775 5774 5773 5772 5771 5770 5768 5767 5765 5763 5761 5758 5756 5754 5752 5750 5748 5745 5743 5740 5737 5734 5731 5728 5725 5722 5719 5716 5713 5709 5705 5701 5696 5691 5686 5682 5677 5672 5667 5663 5659 5655 5651
5765 5764 5763 5761 5760 5759 5758 5757 5755 5752 5750 5748 5747 5745 5744 5741 5738 5735 5732 5730 5728 5725 5721 5719 5716 5713 5710 5706 5702 5698 5694 5690 5685 5680 5675 5670 5666 5661 5657 5653 5649 5645 5641
5753 5753 5752 5751 5750 5749 5747 5745 5744 5743 5741 5740 5738 5736 5733 5730 5727 5725 5723 5720 5718 5715 5711 5709 5706 5703 5700 5695 5692 5688 5683 5679 5674 5669 5664 5659 5655 5652 5647 5643 5639 5635 5631
5742 5742 5742 5741 5740 5739 5737 5736 5735 5733 5732 5730 5728 5725 5722 5720 5718 5717 5714 5712 5709 5706 5702 5700 5697 5694 5690 5686 5682 5678 5673 5667 5662 5658 5654 5650 5646 5642 5638 5633 5629 5624 5620
5730 5731 5731 5731 5730 5729 5728 5726 5725 5724 5722 5720 5718 5715 5713 5711 5708 5707 5705 5702 5700 5696 5693 5691 5688 5684 5680 5676 5671 5667 5662 5657 5652 5648 5644 5640 5636 5632 5628 5623 5619 5614 5609
5720 5721 5721 5721 5720 5719 5718 5716 5715 5715 5714 5711 5709 5706 5704 5702 5700 5698 5696 5693 5690 5687 5684 5681 5678 5674 5670 5665 5661 5656 5652 5647 5643 5639 5634 5630 5626 5621 5617 5613 5608 5603 5599
Wind_Speed
44 22 5 14 19 14 10 10 13 11 9 8 5 5 4 6 5 6 7 9 10 10 9 9 9 6 3 3 5 7 8 8 12 10 8 9 14 17 20 20 22 21 21
25 9 9 11 11 10 10 12 14 12 9 7 7 6 6 7 5 2 2 5 7 8 9 9 9 6 5 4 3 2 3 8 9 9 9 10 16 15 18 23 20 21 21
22 12 12 10 6 7 11 12 14 14 10 7 7 7 7 9 8 7 6 6 8 10 13 12 11 9 7 7 7 7 6 6 6 8 8 13 17 19 21 22 22 23 24
12 9 4 4 5 10 11 11 13 13 13 9 10 9 8 10 11 10 11 10 12 13 14 16 15 12 11 11 11 11 11 12 13 14 15 17 19 22 24 26 28 29 30
15 11 5 3 5 8 10 10 11 13 14 12 11 11 12 12 13 13 15 15 15 16 16 15 16 15 14 14 13 14 15 16 17 18 19 21 23 26 28 29 30 31 32
19 14 16 12 9 12 14 13 13 14 15 16 14 13 13 13 13 13 13 14 14 16 16 15 15 14 15 16 15 15 15 16 17 20 21 23 25 27 28 30 30 33 34
15 16 19 19 20 20 18 18 16 17 17 17 17 16 16 16 15 15 16 16 16 16 16 16 16 16 16 16 15 15 17 20 22 23 25 26 28 31 33 35 37 39 41
17 16 15 11 8 17 16 20 24 23 19 20 20 20 19 18 16 14 15 17 17 17 18 18 18 17 18 18 18 20 22 24 24 26 28 29 30 32 36 38 40 41 43
16 17 8 6 7 1 3 11 21 19 22 23 22 22 20 19 17 15 16 16 16 16 17 18 19 21 20 21 22 24 25 25 27 29 30 32 33 35 37 39 41 43 45
19 8 5 1 7 3 0 4 5 8 13 21 24 17 11 12 14 13 13 14 17 18 20 20 20 22 23 24 24 25 26 28 29 31 33 35 37 39 40 43 43 45 47
18 11 8 6 7 8 5 5 8 11 12 7 3 4 6 6 5 7 10 12 16 18 19 21 23 24 26 28 30 32 33 34 34 34 36 39 40 42 42 43 45 47 47
17 13 14 11 9 8 10 13 12 16 6 4 9 10 10 10 11 12 15 17 18 20 22 24 27 28 28 29 31 33 35 36 37 38 39 41 42 43 44 44 45 44 43
20 15 12 12 14 13 13 15 21 18 11 10 15 16 15 15 17 19 20 21 23 24 27 29 30 31 32 33 36 38 39 40 41 41 42 43 43 44 44 42 40 38 38
20 19 17 16 17 15 15 15 17 18 18 17 17 19 20 21 22 23 25 26 28 29 30 30 31 33 36 39 40 40 42 42 41 41 40 41 40 39 37 36 36 36 37
20 21 22 21 20 19 20 21 20 20 21 20 21 22 23 25 26 27 28 29 31 32 33 33 34 36 38 41 43 42 40 37 37 37 37 37 36 36 36 37 38 39 39
23 22 24 24 23 23 23 24 23 23 24 23 23 25 26 27 29 31 32 33 35 36 36 37 37 39 41 41 39 37 37 37 37 36 36 35 36 37 38 39 39 40 41
27 27 26 27 27 26 25 25 26 27 28 29 29 30 31 32 33 34 35 36 37 37 37 37 39 40 39 35 34 35 36 36 35 35 36 39 40 41 42 43 44 44 43
33 31 28 26 27 26 26 27 27 29 31 32 34 35 35 36 37 39 39 39 38 37 38 39 37 32 32 33 35 35 35 35 36 39 41 41 41 42 42 43 44 44 44
31 33 32 29 28 27 27 27 28 28 31 33 35 36 38 39 39 40 40 38 38 37 35 33 31 32 33 35 36 35 36 39 41 41 41 40 41 41 42 42 42 41 41
26 29 32 31 28 26 26 28 29 32 35 36 36 36 38 39 40 40 39 36 33 30 30 32 32 34 35 35 36 38 40 40 40 38 38 40 41 41 42 42 41 40 39
27 32 35 33 32 33 33 34 34 36 36 35 36 38 39 39 39 38 33 30 28 30 32 33 35 35 36 38 38 37 38 37 37 39 41 41 41 42 41 40 39 38 38
33 34 38 37 37 36 35 37 36 35 35 36 37 37 37 34 32 31 28 28 30 32 32 33 34 35 35 35 36 37 39 40 41 41 41 41 41 39 38 37 37 36 36
37 37 38 40 40 41 40 36 33 34 34 34 34 35 35 31 29 28 29 31 31 32 32 33 33 34 36 36 38 40 42 42 42 40 40 39 37 36 36 35 36 37 38
37 40 42 41 39 37 35 32 33 33 33 34 33 32 28 26 28 30 33 32 32 31 29 31 34 34 36 38 40 41 41 41 41 39 37 35 35 36 36 36 37 38 40
38 38 36 35 35 35 34 34 32 32 33 33 32 30 29 30 32 32 32 32 29 29 31 32 34 36 37 39 40 40 40 39 37 35 35 36 36 36 36 37 38 39 39
38 38 37 33 33 32 35 32 32 33 33 32 32 30 32 34 34 32 30 29 30 32 33 35 37 38 39 39 39 39 37 36 36 36 36 36 37 37 38 38 39 39 39
Wind_Direction
317 317 240 219 204 214 254 268 268 275 274 266 273 261 184 145 125 85 53 39 31 24 27 26 31 27 349 310 273 256 256 241 234 246 276 236 249 272 273 276 282 285 284
334 124 167 175 193 222 250 259 258 257 261 261 261 239 199 182 197 199 325 337 351 350 350 360 360 352 350 344 345 336 256 250 245 251 247 258 272 272 280 286 282 281 283
19 103 134 157 199 245 263 264 257 247 248 248 251 247 224 218 227 238 263 289 310 318 320 324 327 319 305 295 288 284 294 288 275 271 269 256 257 268 266 273 279 282 282
360 21 74 148 269 278 273 267 258 248 250 242 239 240 237 233 239 247 260 274 288 298 303 306 307 307 306 301 297 294 289 284 281 277 273 272 272 272 275 276 278 278 280
311 316 332 333 291 273 272 267 269 266 253 252 246 245 247 248 254 262 274 283 289 292 292 294 296 298 298 295 294 294 293 290 285 282 278 277 277 277 277 278 280 282 282
292 298 301 270 251 257 257 257 256 260 258 248 245 244 250 256 260 268 275 281 286 287 288 289 287 289 293 295 295 295 292 292 297 298 295 291 290 288 285 284 283 284 283
292 307 311 284 266 258 254 254 258 261 256 251 247 244 246 248 252 261 269 275 281 282 280 281 283 288 292 294 295 299 300 300 300 297 296 296 296 295 294 291 291 291 292
304 296 312 310 265 251 275 262 262 242 252 256 254 257 261 264 264 270 277 281 281 280 283 284 285 288 290 292 292 295 298 301 301 299 295 294 293 293 291 290 290 289 289
318 296 304 23 6 211 289 301 218 227 247 255 255 259 261 267 272 280 286 286 287 286 289 294 295 294 295 296 299 303 303 302 302 300 297 294 294 293 292 290 288 288 288
324 323 346 5 351 306 108 356 337 251 242 248 246 241 259 269 270 285 285 286 287 289 291 292 293 298 300 301 304 306 306 305 306 304 303 299 295 293 292 288 286 288 288
319 312 296 319 349 350 238 251 278 265 224 190 230 265 286 293 296 292 289 293 296 295 296 298 299 299 302 304 306 309 307 306 305 301 297 293 291 290 288 287 287 289 290
316 336 332 314 309 310 307 294 288 297 221 159 261 249 250 264 273 278 282 287 291 292 293 294 294 298 301 301 303 304 304 302 299 297 294 293 293 294 294 294 293 292 292
302 302 305 306 307 305 303 303 305 317 319 290 274 273 270 272 275 278 278 281 285 288 290 293 297 299 300 302 302 303 302 299 298 297 298 299 297 297 298 297 297 298 298
290 296 296 292 291 295 296 296 299 302 306 299 287 288 287 285 283 285 288 291 291 292 293 294 296 297 299 301 300 299 300 299 299 299 299 300 300 299 299 298 298 298 298
281 284 286 285 286 288 289 288 288 288 288 288 288 286 285 284 284 286 287 288 289 290 293 292 292 293 296 298 298 298 300 297 297 298 298 297 296 296 297 298 299 300 300
267 273 278 281 283 283 284 285 286 286 286 286 285 285 283 282 283 285 286 287 288 290 289 288 289 293 297 300 301 298 297 299 300 299 300 300 301 300 300 299 299 299 300
276 274 270 272 275 276 281 285 289 290 289 288 288 287 285 284 283 283 283 283 284 287 286 288 293 297 300 298 297 298 299 300 301 301 301 301 301 301 301 302 302 301 301
269 268 268 270 273 276 277 279 283 286 289 290 290 290 289 290 290 289 288 288 288 290 293 297 300 300 300 299 299 300 301 300 301 301 301 301 302 303 303 303 303 303 302
269 266 266 265 267 271 274 277 281 285 288 289 290 290 290 290 290 290 288 288 293 299 299 299 299 299 299 299 299 300 300 301 301 302 304 305 306 307 307 307 306 306 304
274 263 258 259 262 263 276 287 286 286 286 284 285 287 287 286 286 286 291 297 298 299 300 298 297 296 297 298 299 299 300 300 302 304 306 307 308 308 307 307 307 307 307
272 265 261 260 259 266 279 287 286 283 281 282 284 282 283 285 287 291 294 295 296 297 297 297 298 299 299 299 299 300 301 303 305 305 307 309 309 308 308 308 308 306 307
267 266 264 266 269 275 282 285 279 278 278 280 281 283 286 290 293 292 293 295 297 298 297 298 299 300 300 301 304 306 307 307 307 308 308 308 308 308 307 306 305 305 305
266 265 267 270 274 279 280 277 274 277 280 283 285 289 294 292 290 291 294 295 295 297 300 301 301 302 305 308 308 307 307 307 306 307 308 308 307 306 306 306 307 307 307
260 260 268 275 277 277 273 274 278 278 282 287 293 296 293 291 291 291 294 295 298 297 296 297 301 304 305 306 306 306 306 306 308 308 307 306 306 306 306 307 309 309 309
257 261 270 272 277 274 274 278 278 283 288 291 293 296 293 292 293 293 294 295 292 293 298 301 302 303 304 306 306 305 306 307 307 306 306 306 307 307 307 308 309 311 311
258 262 271 271 276 259 275 277 283 288 292 291 289 286 284 287 290 289 292 290 292 297 300 300 301 303 305 306 305 305 305 306 307 307 308 308 307 307 306 307 309 310 311